Résultats de la compétition "Régionale 2 LIFCO" du 28-09-2008 organisée par le club 9502
     
  Télécharger le fichier CSV.  
     
     

 Circuit "A"

Licence Nom Prénom Temps CN
précédent
Score sur
la course
Différence
8237RAIMBAULTJuste0:56:2569316797-134
12934THOMASJohann1:07:4158965665-231
12114PANNIERPascal1:11:0352005397+197
8823LEGUENOlivier1:11:4658055343-462
9601BESTELThierry1:12:3650515282+231
10757MARTELFranck1:13:1258155238-577
3141MOREYEtienne1:14:3846475138+491
17775MAURIESBenjamin1:15:2554935084-409
12346GAFFURIJulien1:17:5950594917-142
17648DUBURQUOISErwan1:18:0256034914-689
1433SERGEANTDominique1:26:0647854454-331
3031TOXESophie1:26:1823034443+2140
22PLAGNESylvain1:27:1245454397-148
130BERARDJ-Philippe1:28:0039484357+409
4428VERMEERSCHThierry1:30:4445274226-301
3160CATALONSebastien1:34:2043344065-269
19558ROCHStephane1:34:4630854046+961
2171DEVILLERSChristophe1:42:4435713733+162
14059TEXIERSamuel1:43:5445603691-869
14650EDIARMichel1:44:3136763669-7
12379MONTAGARDFrederic1:50:2133473475+128
8990GUESDONMaxime1:53:4639493371-578
13677RISSELINNicolas1:58:2734703237-233
20382CHARLEGrégoire2:00:02N/A3195N/A
1384HERTZOGTristanN/A43970-4397
11313GLASSETJ-LucN/A28680-2868
20366TEISSIERJulienN/AN/A0N/A

  Indice de confiance du circuit (moyenne des différences entre CN et score sur la course des 3 à 10 premiers) : 223




 Circuit "B"

Licence Nom Prénom Temps CN
précédent
Score sur
la course
Différence
7251GRUSELLEFabien0:59:2357055952+247
1978GASNOTLaurent1:02:4153245639+315
6117LESAULTPhilippe1:03:4355635547-16
2252GROSHENSDidier1:04:5859405441-499
15696DUBOISAnnabelle1:06:24N/A5323N/A
3201RAUTURIERChristophe1:07:3854405226-214
10755L'HERITIERJean-Philippe1:07:4157505222-528
2787ESNAULTCedric1:09:4746015065+464
7610HEROUARDThierry1:09:5152155060-155
10361COXAnthony1:13:2149964819-177
8445FINASCeline1:13:4043764798+422
3194ESTIVALJ-Luc1:14:1350644763-301
7000GRENOUILLATLise1:14:2546594750+91
3742JOURDATOlivier1:14:2945724745+173
1947POULAINJoel1:14:5052594723-536
2448SPAETHDaniel1:14:56N/A4717N/A
19452CHEVAILLERNicolas1:19:08N/A4467N/A
16381THEBAULTFrancois1:19:1843644457+93
2142NAELPascal1:20:3845994384-215
9422LOUBEYREFranck1:20:5741804366+186
14921CLAUSSDidier1:21:4941224320+198
11855CHATENETPhilippe1:23:4839174218+301
11556LIESSEFrank1:24:0241094206+97
7902PORTRONAlain1:25:0441824155-27
2005TESSIERDamien1:26:58N/A4064N/A
1977FISCHERFrederic1:27:2138694046+177
8300DUFFAUDPhilippe1:31:3838373857+20
13738CHEVILLARDJohann1:31:5233653848+483
12241VIONLudovic1:33:4430373771+734
14688CARUELFrancois1:34:1536543750+96
2007TESSIERJ-Remi1:40:1236843528-156
20280MACAIREPaul1:50:44N/A3192N/A
6488MERATLaurent1:52:5643843130-1254
14240FUCHSSylvain1:56:2325673037+470
11302CARRIELaurent1:59:2626852959+274
3781TOXEPhilippe2:10:5934232699-724
11554VERBRUGGHEAlainN/A33080-3308
1365LEJEUNEBrunoN/A57660-5766
7702RORAJoseN/A50190-5019

  Indice de confiance du circuit (moyenne des différences entre CN et score sur la course des 3 à 10 premiers) : 125




 Circuit "C"

Licence Nom Prénom Temps CN
précédent
Score sur
la course
Différence
14302CAMPBELLNick1:02:1547265032+306
3991MOLINIERLea1:03:1650134951-62
4181RAUTURIERBenoit1:03:5448834902+19
20423DLOUHAMarie1:04:51N/A4830N/A
12515VUILLAUMEBertrand1:05:0045904819+229
16117TARDYLaetitia1:05:2347004791+91
16588BESCHFrederic1:06:4345184695+177
12226PINAUDMichel1:08:1138224594+772
1971CHARRIERDaniel1:09:1051404529-611
14648DIDOUSophie1:09:2447174514-203
13387DEBRABANDEREGilles1:09:3338304504+674
4183RAUTURIERCamille1:09:5051504486-664
19020DUFRESNEFabien1:10:0941064465+359
897HAMONMatthieu1:10:3339774440+463
2034BAROUXJacky1:16:2555334099-1434
18480PAULETSerge1:21:0037593867+108
1367MOLINIERJ-Luc1:22:1039043812-92
2018ALARZALuis1:22:3133473796+449
1386LELOUPPhilippe1:23:2941383752-386
10627GABRIELPhilippe1:25:2633263666+340
9165BAILLEULJ-Paul1:27:1039043594-310
9126NOYEyal1:30:0032353480+245
10812DRUZETICStephane1:33:0234303367-63
13174BARDURYEmile1:33:3332853348+63
18061TCHENGSophie1:34:4121953308+1113
19652MISZOVITSAndrea1:36:28N/A3247N/A
17309BESTELFlorence1:36:4430883238+150
2160ARLANDISJ-Christoph1:55:5325182703+185
19003PIERSONBlandine1:56:1923042693+389
20392JOUFFRAISStéphane2:16:51N/A2289N/A
17764CHOUKROUNGyongyikeN/A30270-3027
4191GARROSOlivierN/A19380-1938
20431WANNAVONGHZManyrathN/AN/A0N/A

  Indice de confiance du circuit (moyenne des différences entre CN et score sur la course des 3 à 10 premiers) : 137




 Circuit "D"

Licence Nom Prénom Temps CN
précédent
Score sur
la course
Différence
10451RAIMBAULTPhilippe0:54:0038364520+684
13391ROGERAlexandre0:54:0538214513+692
4182RAUTURIERMaxime0:57:1343454265-80
3310WINNOCKVeronique1:12:15N/A3378N/A
1381DIEUDONNERoland1:12:5137533350-403
3356CHARIAUMichel1:13:1531653332+167
5627STRULLUFrederic1:15:31N/A3232N/A
3195CLETArlette1:19:1432253080-145
2006TESSIERDaniel1:19:2535103073-437
884GARDEURJulien1:29:5032902717-573
8549CLOUARDFlorence1:29:5926312712+81
10338ROGIERYann1:30:0922892707+418
7520BOUCHESylvie1:31:0922602678+418
3990MOLINIERFrederique1:33:1425802618+38
20434SOUTOUGuilhem1:36:52N/A2520N/A
19550MANGUYVincent1:41:26N/A2406N/A
18296LAVOLLAYMarc1:47:0517062279+573
3600LAZAROWICZRichard2:04:0829421966-976
20435THOMASAmandine2:09:30N/A1885N/A
17096ADAMIsabelle2:24:5920261683-343

  Indice de confiance du circuit (moyenne des différences entre CN et score sur la course des 3 à 10 premiers) : 318




 Circuit "E"

Licence Nom Prénom Temps CN
précédent
Score sur
la course
Différence
13744PAULETGuillaume0:42:1936474003+356
1992MOULINPatricia0:48:0936743518-156
1380DIEUDONNEMadeleine0:51:3642153283-932
4879RAUTURIERQuentin0:52:2430873233+146
17406CAMPBELLJane0:53:0636783190-488
20416STEPHANYAntoine0:55:39N/A3044N/A
19116MACARDNina0:57:2917732947+1174
1363FERRAGERene0:59:0832882865-423
14681ROGERAymeric0:59:3029272847-80
8551CLOUARDLucile1:02:1740492720-1329
19096VISSAULTAudrey1:05:2419512590+639
19074WOLFFAriane1:07:1819652517+552
14761DEBRABANDEREClaudine1:12:3020812336+255
935TESTOUDPhilippe1:14:1131862283-903
14685MARTYCelia1:14:4421222267+145
19345CHARDOTJulia1:17:0113852199+814
20415BUET-ELFASSYSamuel1:17:06N/A2197N/A
19117MOINARDCécile1:22:1820252058+33
20358COFFEMarie-pierre1:22:39N/A2050N/A
2004TESSIERAriane1:24:5221121996-116
11305NOY-GSELLArielle1:27:2223111939-372
3370GAWSEWITCHGerald1:35:2820621774-288
16643CLAUDOTIsabelle1:55:4120961464-632
14652DENHEZLudivine1:59:10N/A1421N/A
12377DENISMartine2:09:3723401307-1033
1362FERRAGEAnnieN/AN/A0N/A
934TESTOUDMadeleineN/A21510-2151

  Indice de confiance du circuit (moyenne des différences entre CN et score sur la course des 3 à 10 premiers) : 339




 Circuit "F"

Licence Nom Prénom Temps CN
précédent
Score sur
la course
Différence
6487MOLINIERCaroline0:21:4730102704-306
12560ESTIVALThierry0:27:5831692107-1062
10758BESTELSandra0:29:2619272002+75
17308BESTELArnault0:31:3122071869-338
8552CLOUARDAugustin0:34:1618051719-86
17774MARTYDorine0:36:3314671612+145
17540WALLYElea0:38:099321544+612
19260CARUELMarie0:38:3410311528+497
13396BEAUVISAGEQuentin0:39:2618131494-319
11311GARNIER-BARSANTIClara0:40:1912901461+171
16688PANNIERQuentin0:43:2418451357-488
17772DESGRANGESTristan0:54:2213981084-314
20PLAGNEEliane1:02:47N/A938N/A
19261CAYSSIALSLéna1:17:50N/A757N/A

  Indice de confiance du circuit (moyenne des différences entre CN et score sur la course des 3 à 10 premiers) : 451






 Retour